User: anonymous   Login
Location: Boca do Mato
(22.9085°S, 43.2930°W)
Time: 13:23:53
(UTC+00:00)
Language:

GPS 2-18 Rocket1 - Orbit

View from above orbital plane
View from above orbital plane
View from above satellite
View from above satellite

Ground track
Ground track

The orbit data is extracted from the following two-line orbital elements,

1 22447U 93007B   20271.71004995 +.00002604 +00000-0 +73753-4 0  9996
2 22447 020.8525 278.5120 0041182 063.4485 297.0173 15.26280773516332
Epoch (UTC): 27 September 2020 17:02:28
Eccentricity: 0.0041182
inclination: 20.8525°
perigee height: 458 km
apogee height: 515 km
right ascension of ascending node: 278.5120°
argument of perigee: 63.4485°
revolutions per day: 15.26280773
mean anomaly at epoch: 297.0173°
orbit number at epoch: 51633

The dashed part of the orbit path shows where the satellite is in the earth's shadow,  

DLR